Norman Wells Airport
CYVQ : now visible

Airfield :











YOU CAN JOIN US ON...

 
LOGIN :

Register | Disclaimer

   EN    FR    IT 

 









Legend :    VFR   Marginal VFR   IFR   Intensive IFR   Very Intensive IFR
Visi :
Ceiling :
>= 8 km
>= 3000ft
5 to 8 km
1000 to 3000 ft
1500m to 5 km
500 to 1000 ft
800 to 1500m
200 to 500 ft
< 800m
< 200 ft
Symbols :   Thunderstorms  Fog  Heavy snow  Heavy precipitations  Wind > 20 kt






- Airport Elevation : 238 ft
- IATA code : YVQ


CYVQ - Norman Wells

CURRENT METAR :
  • 101300Z VRB02KT 30SM SCT060 SCT100 SCT260 M18/M20 A3046 RMK SC3AC1CI1 CI TR SLP324

EXPIRED METARs :
  • 101200Z 00000KT 30SM FEW100 FEW260 M19/M23 A3044 RMK AC1CI1 AC TR CI TR SLP319
  • 101100Z 31006KT 30SM FEW100 FEW260 M14/M17 A3043 RMK AC1CI1 AC TR SLP314

TAF TAF CYVQ
Valid from the 10 at 12:00 until the 11 at 00:00 UTC


101139Z 1012/1024 31008KT P6SM FEW100
FM101500 29010KT P6SM SCT070
BECMG 1022/1024 VRB03KT RMK NXT FCST BY 101800Z



MET'MAP, your aeronautical weather chart ! - Copyright ORBIFLY December 2007 - Disclaimer

ORBIFLY MET'MAP TEAM :

Programming & Development : Alexandra Zaïnal
Concept & original design : Baudouin d'Aumeries
Assistance for programming : Marc-Olivier Méhu
Technical & hardware support : Manuel Goepfert

Contact : metmap@orbifly.com




SOURCES & CREDITS :

   NOAA       Earth
Advisory